EWG5AB LDSP-EDDH

Flight info

Callsign EWG5AB
Flight time N/A
Altitude 36000
Route ZDA DCT SIMBA DCT RUDNO M736 AKOSI DCT ABGUS DCT DIRBO/N0371F230 T902 RARUP RARUP6A
Aircraft A320/M-SDE3FGHIRWY/LB1

Departure

Time N/A
Airport Split Saint Jerome Airport (LDSP)

Arrival

Time 2026-04-20 18:26
Airport Hamburg Helmut Schmidt Airport (EDDH)
Time Latitude Longitude Altitude Speed Heading
2026-04-20 17:59 52.16392 10.99009 33458 ft 404 kts 353°
2026-04-20 17:59 52.18912 10.98468 33219 ft 401 kts 353°
2026-04-20 18:00 52.21932 10.97818 32950 ft 398 kts 353°
2026-04-20 18:00 52.24704 10.97219 32693 ft 396 kts 353°
2026-04-20 18:00 52.27417 10.96632 32437 ft 393 kts 354°
2026-04-20 18:00 52.30120 10.96048 32170 ft 390 kts 354°
2026-04-20 18:01 52.32803 10.95468 31908 ft 387 kts 354°
2026-04-20 18:01 52.35469 10.94889 31615 ft 385 kts 354°
2026-04-20 18:01 52.38133 10.94312 31306 ft 382 kts 354°
2026-04-20 18:01 52.40747 10.93745 30964 ft 379 kts 355°
2026-04-20 18:02 52.43348 10.93182 30596 ft 378 kts 355°
2026-04-20 18:02 52.45969 10.92614 30205 ft 375 kts 354°
2026-04-20 18:02 52.48524 10.92059 29812 ft 373 kts 354°
2026-04-20 18:02 52.51116 10.91495 29413 ft 371 kts 354°
2026-04-20 18:03 52.53645 10.90943 29022 ft 369 kts 354°
2026-04-20 18:03 52.56200 10.90384 28620 ft 366 kts 354°
2026-04-20 18:03 52.58732 10.89830 28223 ft 364 kts 354°
2026-04-20 18:03 52.61221 10.89283 27832 ft 362 kts 355°
2026-04-20 18:04 52.63715 10.88735 27437 ft 359 kts 355°
2026-04-20 18:04 52.66161 10.88199 27046 ft 357 kts 355°
2026-04-20 18:04 52.68640 10.87654 26649 ft 354 kts 355°
2026-04-20 18:04 52.71056 10.87122 26239 ft 352 kts 355°
2026-04-20 18:05 52.75861 10.86065 25346 ft 347 kts 355°
2026-04-20 18:05 52.78239 10.85539 24901 ft 344 kts 355°
2026-04-20 18:05 52.80621 10.85013 24449 ft 341 kts 355°
2026-04-20 18:06 52.82956 10.84495 24003 ft 339 kts 355°
2026-04-20 18:06 52.85274 10.84004 23552 ft 336 kts 356°
2026-04-20 18:06 52.87596 10.83533 23098 ft 334 kts 356°
2026-04-20 18:06 52.89896 10.83071 22649 ft 332 kts 356°
2026-04-20 18:07 52.92201 10.82603 22195 ft 331 kts 356°
2026-04-20 18:07 52.94457 10.82145 21750 ft 329 kts 356°
2026-04-20 18:07 52.96713 10.81686 21306 ft 328 kts 356°
2026-04-20 18:07 52.98985 10.81224 20856 ft 326 kts 356°
2026-04-20 18:08 53.01239 10.80765 20409 ft 324 kts 356°
2026-04-20 18:08 53.03451 10.80313 19969 ft 322 kts 356°
2026-04-20 18:08 53.05688 10.79856 19521 ft 320 kts 356°
2026-04-20 18:08 53.07878 10.79407 19080 ft 319 kts 356°
2026-04-20 18:09 53.09998 10.78973 18652 ft 317 kts 356°
2026-04-20 18:09 53.12241 10.78514 18202 ft 316 kts 356°
2026-04-20 18:09 53.14420 10.78067 17763 ft 315 kts 356°
2026-04-20 18:09 53.16587 10.77621 17330 ft 314 kts 356°
2026-04-20 18:10 53.18741 10.77177 16894 ft 313 kts 357°
2026-04-20 18:10 53.20896 10.76734 16456 ft 312 kts 357°
2026-04-20 18:10 53.23039 10.76292 16025 ft 311 kts 357°
2026-04-20 18:10 53.25209 10.75845 15582 ft 310 kts 357°
2026-04-20 18:11 53.27344 10.75404 15146 ft 310 kts 357°
2026-04-20 18:11 53.29479 10.74951 14711 ft 310 kts 355°
2026-04-20 18:11 53.31532 10.73794 14129 ft 322 kts 334°
2026-04-20 18:11 53.33225 10.71282 13490 ft 336 kts 312°
2026-04-20 18:12 53.34546 10.68021 12853 ft 342 kts 306°
2026-04-20 18:12 53.35793 10.64582 12206 ft 346 kts 304°
2026-04-20 18:12 53.37014 10.61155 11572 ft 344 kts 304°
2026-04-20 18:12 53.38208 10.57780 10921 ft 333 kts 304°
2026-04-20 18:13 53.39370 10.54482 10276 ft 321 kts 304°
2026-04-20 18:13 53.40477 10.51316 9631 ft 311 kts 304°
2026-04-20 18:13 53.41539 10.48274 8994 ft 302 kts 304°
2026-04-20 18:13 53.42596 10.45253 8348 ft 295 kts 304°
2026-04-20 18:14 53.43478 10.42198 7691 ft 294 kts 287°
2026-04-20 18:14 53.43698 10.38828 7049 ft 292 kts 272°
2026-04-20 18:14 53.43675 10.35409 6393 ft 290 kts 270°
2026-04-20 18:14 53.43611 10.32103 5764 ft 288 kts 269°
2026-04-20 18:15 53.43534 10.28720 5311 ft 287 kts 269°
2026-04-20 18:15 53.43454 10.25394 5217 ft 287 kts 269°
2026-04-20 18:15 53.43371 10.22044 5219 ft 287 kts 269°
2026-04-20 18:15 53.43288 10.18719 5203 ft 287 kts 269°
2026-04-20 18:16 53.43205 10.15347 5190 ft 287 kts 269°
2026-04-20 18:16 53.43124 10.12014 5215 ft 288 kts 269°
2026-04-20 18:16 53.43043 10.08649 5216 ft 288 kts 269°
2026-04-20 18:16 53.42963 10.05307 5219 ft 287 kts 269°
2026-04-20 18:17 53.42884 10.01960 5214 ft 287 kts 269°
2026-04-20 18:17 53.42830 9.99649 5216 ft 287 kts 269°
2026-04-20 18:17 53.42753 9.96294 5218 ft 287 kts 269°
2026-04-20 18:17 53.42675 9.92908 5219 ft 287 kts 269°
2026-04-20 18:18 53.42599 9.89581 5209 ft 285 kts 269°
2026-04-20 18:18 53.42518 9.86265 5035 ft 282 kts 269°
2026-04-20 18:18 53.42433 9.82958 4601 ft 285 kts 269°
2026-04-20 18:18 53.42345 9.79626 4223 ft 285 kts 269°
2026-04-20 18:19 53.42364 9.76337 3861 ft 282 kts 283°
2026-04-20 18:19 53.43108 9.73392 3489 ft 271 kts 313°
2026-04-20 18:19 53.44402 9.71155 3130 ft 263 kts 331°
2026-04-20 18:19 53.46008 9.70088 2979 ft 246 kts
2026-04-20 18:20 53.47664 9.70419 2988 ft 236 kts 20°
2026-04-20 18:20 53.49122 9.71432 2973 ft 215 kts 39°
2026-04-20 18:20 53.50199 9.73018 2973 ft 198 kts 49°
2026-04-20 18:20 53.51095 9.74645 2962 ft 181 kts 52°
2026-04-20 18:21 53.51874 9.76152 3029 ft 158 kts 53°
2026-04-20 18:21 53.52558 9.77520 3000 ft 148 kts 54°
2026-04-20 18:21 53.53208 9.78841 2808 ft 146 kts 54°
2026-04-20 18:21 53.53848 9.80148 2613 ft 144 kts 54°
2026-04-20 18:22 53.54484 9.81447 2421 ft 143 kts 54°
2026-04-20 18:22 53.55121 9.82744 2230 ft 142 kts 54°
2026-04-20 18:22 53.55763 9.84056 2051 ft 152 kts 53°
2026-04-20 18:22 53.56448 9.85452 1838 ft 151 kts 53°
2026-04-20 18:23 53.57087 9.86743 1605 ft 136 kts 54°
2026-04-20 18:23 53.57673 9.87933 1413 ft 130 kts 52°
2026-04-20 18:23 53.58255 9.89101 1233 ft 128 kts 53°
2026-04-20 18:23 53.58831 9.90284 1082 ft 130 kts 53°
2026-04-20 18:24 53.59414 9.91474 893 ft 134 kts 50°
2026-04-20 18:24 53.60008 9.92689 733 ft 135 kts 51°
2026-04-20 18:24 53.60623 9.93931 537 ft 140 kts 50°
2026-04-20 18:24 53.61243 9.95193 333 ft 135 kts 52°
2026-04-20 18:25 53.61821 9.96363 136 ft 125 kts 51°
2026-04-20 18:25 53.62349 9.97429 62 ft 103 kts 51°
2026-04-20 18:25 53.62706 9.98156 62 ft 65 kts 50°
2026-04-20 18:25 53.62974 9.98715 62 ft 57 kts 50°
2026-04-20 18:26 53.63094 9.98969 62 ft 13 kts 91°
2026-04-20 18:26 53.63090 9.99125 62 ft 13 kts 92°
2026-04-20 18:26 53.63084 9.99273 62 ft 10 kts 93°
2026-04-20 18:26 53.63088 9.99343 62 ft 0 kts 79°
2026-04-20 18:28 53.63092 9.99370 62 ft 6 kts 71°
2026-04-20 18:28 53.63130 9.99474 62 ft 14 kts 52°
2026-04-20 18:28 53.63198 9.99616 62 ft 9 kts 50°
2026-04-20 18:28 53.63227 9.99709 62 ft 9 kts 89°
2026-04-20 18:29 53.63187 9.99791 62 ft 10 kts 154°
2026-04-20 18:29 53.63121 9.99854 62 ft 11 kts 132°
2026-04-20 18:29 53.63144 9.99961 62 ft 11 kts 51°
2026-04-20 18:29 53.63200 10.00075 62 ft 11 kts 50°
2026-04-20 18:30 53.63229 10.00149 62 ft 7 kts 96°
2026-04-20 18:30 53.63181 10.00183 62 ft 8 kts 175°
2026-04-20 18:30 53.63124 10.00190 62 ft 4 kts 174°
2026-04-20 18:30 53.63119 10.00192 62 ft 0 kts 162°